Weather History for Eveleth, MN

Change the Weather History Date:

Sunday, November 18, 2012

  Actual Average Record
Temperature  
Mean Temperature 40 °F -  
Max Temperature 51 °F 32 °F 53 °F (2001)
Min Temperature 28 °F 18 °F -3 °F (1989)
Degree Days  
Heating Degree Days 26    
Moisture  
Dew Point 32 °F    
Average Humidity 69    
Maximum Humidity 100    
Minimum Humidity 47    
Precipitation  
Precipitation 0.00 in - - ()
Sea Level Pressure  
Sea Level Pressure 30.10 in    
Wind  
Wind Speed 6 mph (SE)    
Max Wind Speed 15 mph    
Max Gust Speed 18 mph    
Visibility 10 miles    
Events      
Averages and records for this station are not official NWS values.
T = Trace of Precipitation, MM = Missing Value Source: NWS Daily Summary

Daily Weather History Graph

Daily Weather History Graph

Search for Another Location

Airport:

Trip Planner

Search our weather history database for the weather conditions in past years. The results will help you decide how hot, cold, wet, or windy it might be!

Date:

Astronomy

Nov. 18, 2012 Rise Set
Actual Time 7:19 AM CST 4:30 PM CST
Civil Twilight 6:45 AM CST 5:04 PM CST
Nautical Twilight 6:08 AM CST 5:41 PM CST
Astronomical Twilight 5:31 AM CST 6:18 PM CST
Moon 11:42 AM CST (11/18) 9:56 PM CST (11/18)
Length of Visible Light 10h 18m
Length of Day
9h 10m
Waxing Crescent, 30% of the Moon is Illuminated
Nov 18
Waxing Crescent
Nov 20
First Quarter
Nov 28
Full
Dec 6
Last Quarter
Dec 13
New

Hourly Weather History & Observations

Time (CST) Temp. Windchill Dew Point Humidity Pressure Visibility Wind Dir Wind Speed Gust Speed Precip Events Conditions
12:09 AM 44.6 °F 40.2 °F 35.6 °F 71% 30.18 in 10.0 mi SSE 8.1 mph - N/A   Overcast
12:29 AM 42.8 °F 38.0 °F 35.6 °F 76% 30.18 in 10.0 mi SSE 8.1 mph - N/A   Overcast
12:50 AM 42.8 °F 37.5 °F 35.6 °F 76% 30.17 in 10.0 mi SSE 9.2 mph - N/A   Overcast
1:09 AM 42.8 °F 38.6 °F 35.6 °F 76% 30.17 in 10.0 mi SSE 6.9 mph - N/A   Overcast
1:29 AM 42.8 °F 39.3 °F 35.6 °F 76% 30.17 in 10.0 mi SE 5.8 mph - N/A   Overcast
1:50 AM 42.8 °F 38.6 °F 35.6 °F 76% 30.17 in 10.0 mi SE 6.9 mph - N/A   Overcast
2:09 AM 42.8 °F 40.1 °F 35.6 °F 76% 30.17 in 10.0 mi SE 4.6 mph - N/A   Overcast
2:29 AM 42.8 °F 39.3 °F 35.6 °F 76% 30.16 in 10.0 mi SE 5.8 mph - N/A   Overcast
2:50 AM 42.8 °F 40.1 °F 35.6 °F 76% 30.16 in 10.0 mi SE 4.6 mph - N/A   Overcast
3:09 AM 42.8 °F 40.1 °F 35.6 °F 76% 30.16 in 10.0 mi SE 4.6 mph - N/A   Overcast
3:29 AM 42.8 °F 39.3 °F 35.6 °F 76% 30.15 in 10.0 mi SE 5.8 mph - N/A   Overcast
3:50 AM 42.8 °F 39.3 °F 33.8 °F 70% 30.15 in 10.0 mi SE 5.8 mph - N/A   Overcast
4:09 AM 42.8 °F 39.3 °F 33.8 °F 70% 30.15 in 10.0 mi SE 5.8 mph - N/A   Overcast
4:30 AM 42.8 °F 39.3 °F 33.8 °F 70% 30.15 in 10.0 mi SE 5.8 mph - N/A   Overcast
4:49 AM 42.8 °F 40.1 °F 33.8 °F 70% 30.15 in 10.0 mi SE 4.6 mph - N/A   Overcast
5:09 AM - - - N/A% 30.14 in 10.0 mi ESE 3.5 mph - N/A   Overcast
5:30 AM 42.8 °F 40.1 °F 33.8 °F 70% 30.14 in 10.0 mi SE 4.6 mph - N/A   Overcast
5:49 AM 42.8 °F 40.1 °F 33.8 °F 70% 30.14 in 10.0 mi SE 4.6 mph - N/A   Overcast
6:09 AM 42.8 °F 40.1 °F 33.8 °F 70% 30.14 in 10.0 mi SE 4.6 mph - N/A   Overcast
6:30 AM 42.8 °F 39.3 °F 32.0 °F 66% 30.13 in 10.0 mi SE 5.8 mph - N/A   Overcast
6:49 AM 42.8 °F 38.6 °F 32.0 °F 66% 30.13 in 10.0 mi SE 6.9 mph - N/A   Overcast
7:09 AM 42.8 °F 38.6 °F 32.0 °F 66% 30.13 in 10.0 mi SE 6.9 mph - N/A   Overcast
7:30 AM 42.8 °F 39.3 °F 32.0 °F 66% 30.13 in 10.0 mi SE 5.8 mph - N/A   Overcast
7:49 AM 42.8 °F 40.1 °F 32.0 °F 66% 30.13 in 10.0 mi SE 4.6 mph - N/A   Overcast
8:10 AM 42.8 °F 40.1 °F 32.0 °F 66% 30.13 in 10.0 mi SE 4.6 mph - N/A   Overcast
8:29 AM 42.8 °F 38.6 °F 32.0 °F 66% 30.13 in 10.0 mi SE 6.9 mph - N/A   Overcast
8:49 AM 42.8 °F 37.5 °F 32.0 °F 66% 30.13 in 10.0 mi SSE 9.2 mph - N/A   Overcast
9:10 AM 42.8 °F 36.2 °F 32.0 °F 66% 30.12 in 10.0 mi SE 12.7 mph - N/A   Overcast
9:29 AM 44.6 °F 38.8 °F 32.0 °F 61% 30.12 in 10.0 mi SSE 11.5 mph - N/A   Overcast
9:49 AM 44.6 °F 39.7 °F 32.0 °F 61% 30.12 in 10.0 mi SSE 9.2 mph 16.1 mph N/A   Overcast
10:10 AM 44.6 °F 39.2 °F 32.0 °F 61% 30.11 in 10.0 mi SSE 10.4 mph - N/A   Overcast
10:29 AM 44.6 °F 39.2 °F 30.2 °F 57% 30.11 in 10.0 mi SSE 10.4 mph 18.4 mph N/A   Mostly Cloudy
10:49 AM 46.4 °F 40.1 °F 30.2 °F 53% 30.10 in 10.0 mi SE 15.0 mph 18.4 mph N/A   Scattered Clouds
11:10 AM 50.0 °F - 32.0 °F 50% 30.10 in 10.0 mi South 11.5 mph 16.1 mph N/A   Clear
11:29 AM 50.0 °F - 32.0 °F 50% 30.08 in 10.0 mi SSE 11.5 mph 16.1 mph N/A   Clear
11:49 AM 51.8 °F - 32.0 °F 47% 30.08 in 10.0 mi SSE 15.0 mph - N/A   Clear
12:10 PM 51.8 °F - 32.0 °F 47% 30.07 in 10.0 mi SE 10.4 mph 17.3 mph N/A   Clear
12:29 PM 51.8 °F - 32.0 °F 47% 30.06 in 10.0 mi South 11.5 mph - N/A   Clear
12:50 PM 51.8 °F - 32.0 °F 47% 30.06 in 10.0 mi SSE 9.2 mph - N/A   Clear
1:09 PM 51.8 °F - 32.0 °F 47% 30.06 in 10.0 mi SSE 10.4 mph 17.3 mph N/A   Clear
1:30 PM 51.8 °F - 32.0 °F 47% 30.05 in 10.0 mi SSE 12.7 mph 18.4 mph N/A   Clear
1:50 PM 51.8 °F - 32.0 °F 47% 30.05 in 10.0 mi SSE 10.4 mph - N/A   Clear
2:09 PM 51.8 °F - 32.0 °F 47% 30.05 in 10.0 mi SSE 11.5 mph - N/A   Clear
2:30 PM 51.8 °F - 32.0 °F 47% 30.05 in 10.0 mi SSE 8.1 mph - N/A   Clear
2:50 PM 51.8 °F - 32.0 °F 47% 30.04 in 10.0 mi SE 8.1 mph - N/A   Clear
3:09 PM 51.8 °F - 32.0 °F 47% 30.04 in 10.0 mi SSE 9.2 mph - N/A   Clear
3:30 PM 51.8 °F - 32.0 °F 47% 30.05 in 10.0 mi SSE 8.1 mph - N/A   Clear
3:49 PM 50.0 °F - 32.0 °F 50% 30.05 in 10.0 mi SSE 8.1 mph - N/A   Clear
4:09 PM 46.4 °F 44.3 °F 30.2 °F 53% 30.05 in 10.0 mi SE 4.6 mph - N/A   Clear
4:29 PM 44.6 °F 41.4 °F 30.2 °F 57% - 10.0 mi SE 5.8 mph - N/A   Clear
4:49 PM 44.6 °F 43.1 °F 30.2 °F 57% 30.06 in 10.0 mi SE 3.5 mph - N/A   Clear
5:10 PM 42.8 °F 41.1 °F 30.2 °F 61% 30.07 in 10.0 mi SSE 3.5 mph - N/A   Clear
5:29 PM 42.8 °F 41.1 °F 30.2 °F 61% 30.07 in 10.0 mi SE 3.5 mph - N/A   Clear
5:49 PM 41.0 °F - 30.2 °F 65% 30.07 in 10.0 mi Calm Calm - N/A   Clear
6:10 PM 35.6 °F - 30.2 °F 81% 30.08 in 10.0 mi Calm Calm - N/A   Clear
6:29 PM 35.6 °F - 32.0 °F 87% - 10.0 mi Calm Calm - N/A   Clear
6:49 PM 33.8 °F - 28.4 °F 81% 30.08 in 10.0 mi Calm Calm - N/A   Clear
7:10 PM 32.0 °F - 28.4 °F 87% 30.08 in 10.0 mi Calm Calm - N/A   Clear
7:29 PM 32.0 °F - 28.4 °F 87% 30.08 in 10.0 mi Calm Calm - N/A   Clear
7:50 PM 32.0 °F - 30.2 °F 93% 30.07 in 10.0 mi Calm Calm - N/A   Clear
8:09 PM 30.2 °F - 28.4 °F 93% 30.07 in 10.0 mi Calm Calm - N/A   Clear
8:29 PM 32.0 °F - 30.2 °F 93% 30.07 in 10.0 mi Calm Calm - N/A   Clear
8:50 PM 32.0 °F - 30.2 °F 93% 30.07 in 7.0 mi Calm Calm - N/A   Clear
9:09 PM 30.2 °F 26.7 °F 28.4 °F 93% 30.06 in 7.0 mi NE 3.5 mph - N/A   Clear
9:29 PM 30.2 °F 26.7 °F 28.4 °F 93% 30.06 in 7.0 mi NE 3.5 mph - N/A   Clear
9:50 PM 28.4 °F - 26.6 °F 93% 30.06 in 7.0 mi Calm Calm - N/A   Clear
10:09 PM 28.4 °F - 26.6 °F 93% 30.06 in 7.0 mi Calm Calm - N/A   Clear
10:30 PM 30.2 °F - 28.4 °F 93% 30.06 in 5.0 mi Calm Calm - N/A   Clear
11:09 PM 28.4 °F - 28.4 °F 100% 30.05 in 5.0 mi Calm Calm - N/A   Clear
11:30 PM 28.4 °F 24.6 °F 26.6 °F 93% 30.06 in 5.0 mi NE 3.5 mph - N/A   Clear
11:50 PM 28.4 °F - 26.6 °F 93% 30.06 in 5.0 mi Calm Calm - N/A   Clear